Regional Weather Roundup
Issued by NWS Albany, NY

Home | Current Version | Previous Version | Graphics & Text | Print | Product List | Glossary Off
Versions: 1 2 3 4 5 6 7 8 9 10 11 12 13 14 15 16 17 18 19 20 21 22 23 24 25 26 27 28

000
ASUS41 KALY 222310
RWRALY

NEW YORK STATE HOURLY WEATHER ROUNDUP
NATIONAL WEATHER SERVICE ALBANY NY
700 PM EDT SUN APR 22 2018

NOTE: "FAIR" INDICATES FEW OR NO CLOUDS BELOW 12,000 FEET WITH NO
SIGNIFICANT WEATHER AND/OR NO OBSTRUCTIONS TO VISIBILITY.

NYZ032-033-038>043-046>054-057>066-NYZ062>081-082-084-230000-
EAST


CITY           SKY/WX    TMP DP  RH WIND       PRES   REMARKS
ALBANY         FAIR      61   7  11 N9        30.32R
GLENS FALLS    FAIR      57  19  22 NE8       30.33R
POUGHKEEPSIE   FAIR      61  17  18 N8        30.30R
NEWBURGH       CLEAR     63  19  19 NW7       30.31S
MONTGOMERY     FAIR      62  18  18 N7G16     30.29S
WHITE PLAINS   FAIR      55  22  27 S10G18    30.32R
ISLIP          FAIR      51  27  39 SW14      30.35R
NEW YORK CITY  FAIR      57  24  28 S13       30.33R
CENTRAL PARK   FAIR      56  23  27 S8G18     30.35S
$$

NYZ005>009-017-018-044>046-055-056-230000-
CENTRAL


CITY           SKY/WX    TMP DP  RH WIND       PRES   REMARKS
FULTON         FAIR      55  18  23 NW5       30.38F
SYRACUSE       FAIR      55  19  24 NW7       30.37S
ROME           FAIR      57  20  23 CALM      30.36S
ELMIRA         FAIR      60  21  22 NE9       30.35S
BINGHAMTON     FAIR      54  15  21 N13       30.34S
MONTICELLO     FAIR      57  17  21 N7        30.33R
$$

NYZ026>034-041>043-087-230000-
NORTH


CITY           SKY/WX    TMP DP  RH WIND       PRES   REMARKS
WATERTOWN      FAIR      49  21  33 SW7       30.37S
FORT DRUM      NOT AVBL
OGDENSBURG     FAIR      59  14  16 CALM      30.36S
MASSENA        FAIR      57  11  16 NW8       30.37S
SARANAC LAKE   FAIR      50  12  21 N6        30.33S
PLATTSBURGH    FAIR      54  17  23 VRB3      30.35S
$$

NYZ001>004-010>016-019>021-085-230000-
WEST


CITY           SKY/WX    TMP DP  RH WIND       PRES   REMARKS
NIAGARA FALLS  FAIR      61  21  21 NE6       30.37S
BUFFALO        FAIR      59  20  22 NE7       30.36S
DUNKIRK        FAIR      56  24  29 N12       30.34F
JAMESTOWN      FAIR      57  20  23 NE7       30.32S
WELLSVILLE     FAIR      57  17  21 E6        30.35S
ROCHESTER      FAIR      58  20  22 NE9       30.38S
PENN YAN       FAIR      58  15  18 N7        30.37S
$$

             KEY
       WCI = WIND CHILL INDEX
       VSB = VISIBILITY
       HX  = HEAT INDEX
$$




USA.gov is the U.S. government's official web portal to all federal, state and local government web resources and services.